Tracking 18957 objects as of 22-Jan-2018
HD Live streaming from Space Station
objects crossing your sky now

SKCUBE

Track SKCUBE now!
10-day predictions
SKCUBE is classified as:


NORAD ID: 42789
Int'l Code: 2017-036AA
Perigee: 501.1 km
Apogee: 515.9 km
Inclination: 97.4 °
Period: 94.6 minutes
Semi major axis: 6879 km
RCS: Unknown
Launch date: June 23, 2017
Source: Slovakia (SK)
Launch site: SRIHARIKOTA (SRI)
Uplink (MHz): 437.100
Downlink (MHz): 437.100/2401.000
Beacon (MHz):
Mode: 9600bps GMSK Digipeater
Call sign: OM9SAT
Status: Active

aabbcc
Your satellite tracking list
Your tracking list is empty




NASA's NSSDC Master Catalog

Two Line Element Set (TLE):
1 42789U 17036AA  18021.23222728 +.00001289 +00000-0 +60378-4 0  9995
2 42789 097.4224 083.3281 0010802 226.0947 133.9398 15.21481583032162
Source of the keplerian elements: AFSPC